Find Starlink 2555

NORAD ID: 48291 Int'l Des: 2021-036 Owner: SPXS Country: US Constellation: starlink operational
LEOCIRCULAR

实时位置

正在加载3D地球...

关于 Starlink 2555

正在加载描述...

即将过境

Passes for default location (London). Set your location on the main map for personalized predictions.

高度历史

Loading altitude history...

两行轨道根数

1 48291U 21036R 26121.92452099 .00011300 00000-0 37497-3 0 9996
2 48291 53.1592 190.3242 0001184 84.6920 275.4217 15.31733524276529
Epoch: May 1, 2026 • Age: 9 hours

当前状态

高度 470.6 km
速度 7.63 km/s
星下点 13.87°N, 36.99°E
发射日期 Apr 29, 2021
运行时间 5 years
类型 internet

技术详情

分类 Payload
质量 260.00 kg
干质量 248.00 kg
总质量 260.00 kg
长度 0.20 m
直径 2.80 m
跨度 9.00 m
形状 Box + pan
制造商 SPXS
平台类型 Starlink
阶段状态 In Orbit
所有者/国家 SPXS/US

Most Searched